Terminal Aerodrome Forecast
Issued by NWS

Home | Current Version | Previous Version | Text Only | Print | Product List | Glossary On
Versions: 1 2 3 4 5 6 7 8 9 10 11 12 13 14
000
FTUS42 TJSJ 062335
TAFJPS
TAF
TJPS 062335Z 0700/0724 16008KT P6SM FEW030 SCT050
     FM071500 14012KT P6SM FEW030 SCT060
     FM072330 06007KT P6SM FEW040
      AMD NOT SKED TIL 070300=

USA.gov is the U.S. government's official web portal to all federal, state and local government web resources and services.